SL-8 R/B

Satellite information

Favourite Embed

Satellite Type and Status

ROCKET BODYIN ORBIT

Key statistics

Satellite SL-8 R/B at a glance.

Uptime

11806

Days in orbit

Revolutions

≈ 13.8

Per day

Orbit

LEO

Low Earth Orbit

Inclination

82.9

Latest

Satellite identification and parameters

Extended collection of information and parameters for SL-8 R/B.

Object identification

Identified? True

Debris? False

Object name: SL-8 R/B

International designator: 1993-001B

Object number (NORAD): 22308

Object ID (CCSDS): 22308

Country: COMMONWEALTH OF INDEPENDENT STATES (CIS)

Current information (Y/N): Y

RCS size: LARGE

Orbital parameters

Period: 104.656 minutes

Inclination: 82.9371 deg

SMA: 7356.494 km

Apoapsis: 996.594 km

Periapsis: 960.123 km

RAAN: 187.1834 deg

Eccentricy: 0.0024788

Argument of periapsis: 71.536 deg

Mean anomaly: 51.2383 deg

Mean motion: 13.75930406 rev/day

Mean motion (dot): 0.00000122 rev/day2

B* drag term: 0.0001099 1/REarth

Two-line elements (TLE)

Creation date: May 10, 2025, 2:32 a.m.

Reference frame: TEME

Reference center: EARTH

Epoch: May 9, 2025, 5:23 p.m. UTC

TLE line 0: 0 SL-8 R/B

TLE line 1: 1 22308U 93001B 25129.72456429 .00000122 00000-0 10990-3 0 9993

TLE line 2: 2 22308 82.9371 187.1834 0024788 71.5360 51.2383 13.75930406622516

Live tracking on map

Real-time ground track for satellite SL-8 R/B.

In-orbit conjunctions

A list of the most updated potential collisions computed for object SL-8 R/B.

Target Orbit TCA Probability of collision Miss distance Type
SL-8 R/B LEO 2025-01-03 23:31:16 0.0004783456 69.0 (m) ROCKET BODY

Associated space launch

Civilian navigation satellite equivalent to the purely military Parus

SL-8 R/B was lifted into orbit during the mission ‘Kosmos-3M | Tsikada 19’, on board a Kosmos-3M space rocket.

The launch took place on Jan. 12, 1993, 11:10 a.m. from 133/3 (133L).

For more information about the launch, click the button.

Launch to space Kosmos-3M | Tsikada 19
Kosmos-3M | Tsikada 19

Agency: N/A

Status: Launch Successful

Launch date: Jan. 12, 1993, 11:10 a.m. UTC

Rocket: Kosmos-3M

Launch pad: 133/3 (133L)

Location: Plesetsk Cosmodrome, Russian Federation

...

Latest news about this satellite

There are no fresh news available about this satellite. Check back as we update our databases every day.


Newsletter sign-up

Weekly statistics, charts and insights to help you stay on top of the space industry.